Flag for Norway Weather past 2 weeks in Leirvik, Norway

Now
68 °F

Mild.


Feels Like: 68 °F
Forecast: 62 / 73 °F
Wind: 2 mph from Southwest

Location: Slatteroy Fyr

Current Time: Jul 22, 2014 at 9:49:36 AM

Latest Report: Jul 22, 2014 at 9:00 AM


Visibility: N/A

Pressure: 30.23 "Hg

Humidity: 77%

Dew point: 60 °F

Location of LeirvikLocation

Historic Weather in Leirvik — Graph

°F

Leirvik temperature yesterday

Maximum temperature yesterday: 80 °F (at 2:00 PM)
Minimum temperature yesterday: 66 °F (at 5:00 AM)
Average temperature yesterday: 71 °F

Past Weeks' High & Low Weather Summary

 TemperatureHumidityPressure
High80 °F (Jul 21, 2:00 PM)93% (Jul 7, 8:00 AM)30.22 "Hg (Jul 7, 8:00 AM)
Low54 °F (Jul 8, 6:00 AM)37% (Jul 21, 12:00 PM)29.66 "Hg (Jul 14, 8:00 AM)
Average63 °F79%30.00 "Hg
* Reported Jul 7 8:00 AM — Jul 22 8:00 AM, Leirvik, Weather by CustomWeather, © 2014

Note: Actual official high and low records may vary slightly from our data, if they occured in-between our weather recording intervals... More about our weather records

Advertising

Leirvik weather history for previous 24 hours

 ConditionsComfort  
Time TempWeatherWind HumidityBarometerVisibility
8:00 AM
Jul 22
67 °FMild.2 mph76%30.22 "HgN/A
7:00 AM67 °FMild.3 mph78%30.21 "HgN/A
6:00 AM66 °FMild.3 mph80%30.20 "HgN/A
5:00 AM66 °FMild.5 mph78%30.20 "HgN/A
3:00 AM67 °FMild.2 mph79%30.20 "HgN/A
2:00 AM68 °FMild.2 mph69%30.19 "HgN/A
1:00 AM69 °FMild.2 mph74%30.20 "HgN/A
12:00 AM69 °FMild.2 mph70%30.19 "HgN/A
11:00 PM
Jul 21
70 °FMild.2 mph58%30.19 "HgN/A
10:00 PM70 °FMild.2 mph67%30.18 "HgN/A
9:00 PM70 °FMild.2 mph64%30.17 "HgN/A
8:00 PM70 °FMild.2 mph70%30.16 "HgN/A
7:00 PM72 °FMild.1 mph68%30.15 "HgN/A
6:00 PM73 °FMild.1 mph64%30.14 "HgN/A
5:00 PM74 °FMild.3 mph67%30.13 "HgN/A
4:00 PM74 °FMild.7 mph64%30.13 "HgN/A
2:00 PM80 °FPleasantly warm.3 mph38%30.10 "HgN/A
1:00 PM79 °FPleasantly warm.5 mph37%30.09 "HgN/A
12:00 PM78 °FPleasantly warm.5 mph37%30.09 "HgN/A
11:00 AM71 °FMild.5 mph64%30.09 "HgN/A
10:00 AM71 °FMild.5 mph59%30.09 "HgN/A
9:00 AM70 °FMild.3 mph63%30.07 "HgN/A
Weather by CustomWeather, © 2014

See weather overviewHow to use our weather pages